This demonstration page uses our WeatherBlox Daily Observations layout. Learn more.

Left ArrowRight Arrow

Hourly Observations for February 20, 2016

Temp ( °F °C ) Dew Point ( °F °C ) Humidity (%) Winds ( mph kmh ) Pressure ( in mb ) Visibility ( mi km ) Precip ( " mm )
12:14 am 00:14 Clear 50 10 45 7 82 82 WSW 13 20 30.03 1017 10 16 N/A
12:35 am 00:35 Clear 48 9 45 7 87 87 SW 8 13 30.03 1017 10 16 N/A
12:54 am 00:54 Clear 48 9 43 6 82 82 SW 8 13 30.03 1017 10 16 N/A
1:14 am 01:14 Clear 46 8 43 6 87 87 SW 8 13 30.03 1017 10 16 N/A
1:34 am 01:34 Clear 46 8 43 6 87 87 SW 8 13 30.03 1017 10 16 N/A
1:54 am 01:54 Clear 46 8 43 6 87 87 SW 9 15 30.03 1017 10 16 N/A
2:14 am 02:14 Clear 46 8 43 6 87 87 SW 7 11 30.03 1017 10 16 N/A
2:34 am 02:34 Clear 46 8 43 6 87 87 SW 8 13 30.03 1017 10 16 N/A
2:54 am 02:54 Clear 46 8 43 6 87 87 SW 8 13 30.03 1017 10 16 N/A
3:14 am 03:14 Clear 46 8 43 6 87 87 SW 9 15 30.03 1017 10 16 N/A
3:34 am 03:34 Clear 45 7 43 6 93 93 SW 8 13 30.03 1017 10 16 N/A
3:54 am 03:54 Clear 46 8 43 6 87 87 SW 8 13 30.03 1017 10 16 N/A
4:15 am 04:15 Clear 45 7 43 6 93 93 SW 8 13 30.00 1016 10 16 N/A
4:34 am 04:34 Clear 45 7 43 6 93 93 SW 7 11 30.00 1016 10 16 N/A
4:54 am 04:54 Clear 46 8 43 6 87 87 SW 7 11 30.03 1017 10 16 N/A
5:15 am 05:15 Clear 45 7 43 6 93 93 SSW 5 7 30.03 1017 10 16 N/A
5:34 am 05:34 Clear 43 6 41 5 93 93 S 6 9 30.00 1016 10 16 N/A
5:54 am 05:54 Clear 43 6 41 5 93 93 S 7 11 30.00 1016 10 16 N/A
6:15 am 06:15 Clear 43 6 41 5 93 93 S 7 11 30.00 1016 10 16 N/A
6:34 am 06:34 Clear 43 6 41 5 93 93 S 5 7 30.00 1016 10 16 N/A
6:54 am 06:54 Clear 41 5 39 4 93 93 S 6 9 30.00 1016 5 8 N/A
7:15 am 07:15 Clear 43 6 41 5 93 93 S 8 13 30.00 1016 7 11 N/A
7:34 am 07:34 Sunny 43 6 43 6 100 100 S 8 13 30.00 1016 4 6 N/A
7:54 am 07:54 Sunny 43 6 43 6 100 100 S 9 15 30.00 1016 2 3 N/A
8:15 am 08:15 Sunny 45 7 43 6 93 93 S 9 15 30.00 1016 3 4 N/A
8:34 am 08:34 Sunny 45 7 45 7 100 100 S 9 15 30.03 1017 3 5 N/A
8:54 am 08:54 Sunny 45 7 45 7 100 100 S 10 17 30.03 1017 2 3 N/A
9:15 am 09:15 Sunny 46 8 46 8 100 100 SSW 10 17 30.03 1017 5 8 N/A
9:34 am 09:34 Sunny 50 10 46 8 88 88 SSW 10 17 30.03 1017 10 16 N/A
9:54 am 09:54 Sunny 52 11 46 8 82 82 S 8 13 30.03 1017 10 16 N/A
10:15 am 10:15 Sunny 55 13 48 9 77 77 SSW 10 17 30.00 1016 10 16 N/A
10:34 am 10:34 Sunny 57 14 46 8 67 67 SSW 14 22 30.00 1016 10 16 N/A
10:54 am 10:54 Sunny 59 15 45 7 59 59 SW 12 19 30.00 1016 10 16 N/A
11:14 am 11:14 Sunny 61 16 43 6 52 52 SW 14 22 29.97 1015 10 16 N/A
11:34 am 11:34 Sunny 63 17 41 5 45 45 SW 22 35 29.97 1015 10 16 N/A
11:55 am 11:55 Sunny 63 17 41 5 45 45 SW 20 31 29.97 1015 10 16 N/A
12:14 pm 12:14 Sunny 64 18 39 4 40 40 SW 21 33 29.97 1015 10 16 N/A
12:34 pm 12:34 Sunny 66 19 41 5 40 40 SW 16 26 29.97 1015 10 16 N/A
12:55 pm 12:55 Sunny 66 19 41 5 40 40 WSW 16 26 29.97 1015 10 16 N/A
1:14 pm 13:14 Sunny 68 20 37 3 33 33 WSW 21 33 29.97 1015 10 16 N/A
1:34 pm 13:34 Sunny 68 20 37 3 33 33 WSW 25 41 29.94 1014 10 16 N/A
1:55 pm 13:55 Sunny 68 20 37 3 33 33 WSW 17 28 29.94 1014 10 16 N/A
2:14 pm 14:14 Sunny 70 21 34 1 27 27 WSW 20 31 29.91 1013 10 16 N/A
2:34 pm 14:34 Sunny 70 21 34 1 27 27 WSW 18 30 29.88 1012 10 16 N/A
2:55 pm 14:55 Sunny 70 21 37 3 31 31 WSW 15 24 29.88 1012 10 16 N/A
3:14 pm 15:14 Sunny 70 21 36 2 29 29 WSW 16 26 29.88 1012 10 16 N/A
3:34 pm 15:34 Sunny 70 21 36 2 29 29 WSW 16 26 29.88 1012 10 16 N/A
3:55 pm 15:55 Sunny 70 21 36 2 29 29 WSW 20 31 29.88 1012 10 16 N/A
4:14 pm 16:14 Sunny 70 21 36 2 29 29 WSW 17 28 29.88 1012 10 16 N/A
4:34 pm 16:34 Sunny 70 21 37 3 31 31 WSW 12 19 29.88 1012 10 16 N/A
4:55 pm 16:55 Sunny 68 20 34 1 28 28 W 12 19 29.88 1012 10 16 N/A
5:14 pm 17:14 Sunny 68 20 34 1 28 28 WSW 14 22 29.88 1012 10 16 N/A
5:34 pm 17:34 Sunny 66 19 36 2 32 32 WSW 10 17 29.91 1013 10 16 N/A
5:54 pm 17:54 Sunny 64 18 36 2 34 34 WSW 10 17 29.91 1013 10 16 N/A
6:14 pm 18:14 Sunny 61 16 36 2 39 39 SW 8 13 29.94 1014 10 16 N/A
6:35 pm 18:35 Clear 59 15 37 3 45 45 SW 7 11 29.94 1014 10 16 N/A
6:54 pm 18:54 Clear 57 14 37 3 48 48 WSW 8 13 29.94 1014 10 16 N/A
7:14 pm 19:14 Clear 55 13 37 3 51 51 WSW 7 11 29.97 1015 10 16 N/A
7:35 pm 19:35 Clear 55 13 37 3 51 51 WSW 8 13 29.97 1015 10 16 N/A
7:54 pm 19:54 Clear 52 11 36 2 54 54 W 7 11 30.00 1016 10 16 N/A
8:14 pm 20:14 Clear 52 11 36 2 54 54 W 3 6 30.00 1016 10 16 N/A
8:35 pm 20:35 Clear 48 9 36 2 62 62 WSW 3 6 30.00 1016 10 16 N/A
8:54 pm 20:54 Clear 54 12 37 3 54 54 W 5 7 29.97 1015 10 16 N/A
9:14 pm 21:14 Clear 52 11 37 3 58 58 WSW 3 6 30.00 1016 10 16 N/A
9:34 pm 21:34 Clear 50 10 37 3 62 62 WSW 3 6 30.00 1016 10 16 N/A
9:54 pm 21:54 Clear 45 7 36 2 71 71 S 5 7 30.00 1016 10 16 N/A
10:15 pm 22:15 Clear 46 8 36 2 66 66 SSW 5 7 30.00 1016 10 16 N/A
10:34 pm 22:34 Clear 46 8 37 3 71 71 SW 3 6 30.00 1016 10 16 N/A
10:54 pm 22:54 Clear 45 7 37 3 76 76 N N/A 30.00 1016 10 16 N/A
11:15 pm 23:15 Clear 43 6 36 2 76 76 N N/A 30.00 1016 10 16 N/A
11:34 pm 23:34 Clear 45 7 37 3 76 76 N N/A 29.97 1015 10 16 N/A
11:54 pm 23:54 Clear 41 5 36 2 81 81 NNE 3 6 30.00 1016 10 16 N/A

Powered by AerisWeather